EW6576 Weather Reports


Display with metric or nautical units.
time (UTC)temp
F
wind
direction
speed
MPH
gust
MPH
rain 1hr
in
rain 24hr
in
rain mn
in
humidity
%
barometer
mb
20260507114325 51 172 0.0 0.0 0.00 0.00 0.00 99 1016.1
20260507113823 51 172 0.0 0.0 0.00 0.00 0.00 99 1015.8
20260507113320 51 162 0.0 0.0 0.00 0.00 0.00 99 1015.9
20260507112817 50 162 0.0 0.0 0.00 0.00 0.00 99 1015.7
20260507112314 50 161 0.0 0.0 0.00 0.00 0.00 99 1015.8
20260507111812 51 162 0.0 0.0 0.00 0.00 0.00 99 1016.1
20260507111308 51 162 0.0 0.0 0.00 0.00 0.00 99 1016.1
20260507110804 51 162 0.0 0.0 0.00 0.00 0.00 99 1015.9
20260507110301 51 163 0.0 0.0 0.00 0.00 0.00 99 1016.1
20260507105758 51 138 0.0 0.0 0.00 0.00 0.00 99 1016.1
20260507105254 51 142 0.0 0.0 0.00 0.00 0.00 99 1016.1
20260507104752 50 141 0.0 0.0 0.00 0.00 0.00 99 1016.1
20260507104248 50 141 0.0 0.0 0.00 0.00 0.00 99 1015.9
20260507103744 50 140 0.0 0.0 0.00 0.00 0.00 99 1016.1
20260507103240 50 142 0.0 0.0 0.00 0.00 0.00 99 1016.5
20260507102737 50 143 0.0 0.0 0.00 0.00 0.00 99 1016.2
20260507102233 50 107 0.0 0.0 0.00 0.00 0.00 99 1016.3
20260507101730 50 107 0.0 0.0 0.00 0.00 0.00 99 1016.3
20260507101225 50 125 0.0 0.0 0.00 0.00 0.00 99 1016.3
20260507100722 50 125 0.0 0.0 0.00 0.00 0.00 98 1016.3
20260507100221 50 125 0.0 0.0 0.00 0.00 0.00 99 1016.1
20260507095718 50 126 0.0 0.0 0.00 0.00 0.00 98 1016.5
20260507095215 50 126 0.0 0.0 0.00 0.00 0.00 98 1016.5
20260507094712 50 126 0.0 0.0 0.00 0.00 0.00 98 1016.6
20260507094209 50 126 0.0 0.0 0.00 0.00 0.00 98 1016.9
20260507093705 51 126 0.0 0.0 0.00 0.00 0.00 98 1016.6
20260507093204 50 126 0.0 0.0 0.00 0.00 0.00 98 1016.7
20260507092701 50 126 0.0 0.0 0.00 0.00 0.00 98 1016.8
20260507092157 50 126 0.0 0.0 0.00 0.00 0.00 98 1016.7
20260507091654 51 126 0.0 0.0 0.00 0.00 0.00 98 1016.7
20260507091150 51 126 0.0 0.0 0.00 0.00 0.00 98 1016.7
20260507090646 51 126 0.0 0.0 0.00 0.00 0.00 98 1016.7
20260507090143 51 126 0.0 0.0 0.00 0.00 0.00 98 1016.7
20260507085640 50 126 0.0 0.0 0.00 0.00 0.00 98 1016.8
20260507085137 51 126 0.0 0.0 0.00 0.00 0.00 98 1017.0
20260507084634 51 127 0.0 0.0 0.00 0.00 0.00 98 1017.1
20260507084130 51 126 0.0 0.0 0.00 0.00 0.00 98 1017.0
20260507083627 51 126 0.0 0.0 0.00 0.00 0.00 97 1017.0
20260507083124 51 127 0.0 0.0 0.00 0.00 0.00 98 1017.1
20260507082619 51 127 1.0 1.0 0.00 0.00 0.00 98 1017.0
20260507082116 51 125 0.0 0.0 0.00 0.00 0.00 97 1017.1
20260507081613 51 132 0.0 0.0 0.00 0.00 0.00 97 1017.3
20260507081109 51 134 0.0 0.0 0.00 0.00 0.00 97 1017.2
20260507080606 51 134 0.0 0.0 0.00 0.00 0.00 97 1017.3
20260507075557 51 134 0.0 0.0 0.00 0.00 0.00 97 1017.3
20260507075054 51 134 0.0 0.0 0.00 0.00 0.00 97 1017.4
20260507074551 51 134 0.0 0.0 0.00 0.00 0.00 97 1017.5
20260507074049 51 135 0.0 0.0 0.00 0.00 0.00 96 1017.5
20260507073545 52 135 0.0 0.0 0.00 0.00 0.00 96 1017.5
20260507073042 52 139 0.0 0.0 0.00 0.00 0.00 96 1017.5
20260507072539 52 127 0.0 0.0 0.00 0.00 0.00 96 1017.3
20260507072036 52 127 0.0 0.0 0.00 0.00 0.00 96 1017.4
20260507071533 52 111 0.0 0.0 0.00 0.00 0.00 96 1017.6
20260507071030 52 109 1.0 1.0 0.00 0.00 0.00 96 1017.7
20260507070527 52 166 0.0 0.0 0.00 0.00 0.00 96 1017.5
20260507070024 52 178 0.0 0.0 0.00 0.00 0.00 96 1017.7
20260507065520 52 113 0.0 0.0 0.00 0.00 0.00 96 1017.4
20260507065018 52 113 1.0 1.0 0.00 0.00 0.00 96 1017.4
20260507064515 52 114 0.0 0.0 0.00 0.00 0.00 96 1017.5
20260507064014 52 114 0.0 1.0 0.00 0.00 0.00 96 1017.5
20260507063510 52 113 0.0 1.0 0.00 0.00 0.00 96 1017.7
20260507063008 52 123 0.0 1.0 0.00 0.00 0.00 95 1017.5
20260507062504 53 156 0.0 0.0 0.00 0.00 0.00 95 1017.7
20260507062002 53 156 0.0 0.0 0.00 0.00 0.00 95 1017.6
20260507061459 53 157 0.0 0.0 0.00 0.00 0.00 95 1017.8
20260507060958 53 156 0.0 0.0 0.00 0.00 0.00 95 1017.6
20260507060454 54 165 0.0 0.0 0.00 0.00 0.00 95 1017.7
20260507055951 54 162 0.0 0.0 0.00 0.00 0.00 95 1017.7
20260507055446 54 127 0.0 0.0 0.00 0.00 0.00 95 1017.7
20260507054943 53 127 0.0 0.0 0.00 0.00 0.00 95 1017.7
20260507054439 54 132 0.0 0.0 0.00 0.00 0.00 95 1017.7
20260507053937 54 131 0.0 0.0 0.00 0.00 0.00 95 1017.5
20260507053434 54 133 0.0 0.0 0.00 0.00 0.00 95 1017.6
20260507052932 54 133 0.0 0.0 0.00 0.00 0.00 95 1017.6
20260507052430 55 134 0.0 0.0 0.00 0.00 0.00 94 1017.5
20260507051927 55 134 0.0 0.0 0.00 0.00 0.00 94 1017.8
20260507051424 55 140 0.0 0.0 0.00 0.00 0.00 94 1017.5
20260507050921 55 144 0.0 0.0 0.00 0.00 0.00 94 1017.6
20260507050418 55 120 0.0 0.0 0.00 0.00 0.00 94 1017.5
20260507045915 55 119 0.0 0.0 0.00 0.00 0.00 93 1017.2
20260507045411 55 118 0.0 0.0 0.00 0.00 0.00 93 1017.4
20260507044908 55 154 0.0 0.0 0.00 0.00 0.00 94 1017.4
20260507044405 55 112 1.0 1.0 0.00 0.00 0.00 93 1017.5
20260507043901 55 153 1.0 1.0 0.00 0.00 0.00 93 1017.3
20260507043357 55 108 1.0 1.0 0.00 0.00 0.00 93 1017.4
20260507042853 56 114 1.0 1.0 0.00 0.00 0.00 92 1017.5
20260507042350 56 112 0.0 1.0 0.00 0.00 0.00 92 1017.3
20260507041846 56 122 0.0 0.0 0.00 0.00 0.00 91 1017.3
20260507041343 57 117 1.0 1.0 0.00 0.00 0.00 90 1017.2
20260507040841 57 130 0.0 0.0 0.00 0.00 0.00 90 1017.2
20260507040336 57 130 0.0 0.0 0.00 0.00 0.00 89 1017.1
20260507035832 58 136 0.0 0.0 0.00 0.00 0.00 89 1017.1
20260507035328 58 136 0.0 0.0 0.00 0.00 0.00 88 1017.4
20260507034826 59 165 0.0 1.0 0.00 0.00 0.00 88 1017.2
20260507034323 59 163 0.0 0.0 0.00 0.00 0.00 88 1017.0
20260507033821 59 157 0.0 1.0 0.00 0.00 0.00 88 1017.2
20260507033318 59 146 0.0 0.0 0.00 0.00 0.00 87 1016.9
20260507032815 60 180 0.0 0.0 0.00 0.00 0.00 87 1017.0
20260507032311 60 213 0.0 0.0 0.00 0.00 0.00 86 1017.0
20260507031808 60 176 0.0 0.0 0.00 0.00 0.00 85 1016.9
20260507031305 60 155 0.0 0.0 0.00 0.00 0.00 85 1017.0
20260507030801 60 193 1.0 1.0 0.00 0.00 0.00 85 1016.8
20260507030259 61 137 0.0 1.0 0.00 0.00 0.00 84 1016.7
20260507025756 61 125 2.0 3.0 0.00 0.00 0.00 83 1016.9
20260507025253 61 132 3.0 3.0 0.00 0.00 0.00 82 1016.8
20260507024751 61 141 3.0 3.0 0.00 0.00 0.00 82 1016.6
20260507024248 61 120 2.0 2.0 0.00 0.00 0.00 81 1016.8
20260507023743 62 113 2.0 2.0 0.00 0.00 0.00 80 1016.7
20260507023240 62 127 3.0 3.0 0.00 0.00 0.00 79 1016.5
20260507022738 62 121 2.0 2.0 0.00 0.00 0.00 78 1016.6
20260507022233 62 125 2.0 2.0 0.00 0.00 0.00 77 1016.5
20260507021730 63 122 2.0 2.0 0.00 0.00 0.00 76 1016.5
20260507021225 63 128 3.0 3.0 0.00 0.00 0.00 76 1016.5
20260507020724 63 104 2.0 2.0 0.00 0.00 0.00 74 1016.3
20260507020220 63 88 3.0 3.0 0.00 0.00 0.00 73 1016.2
20260507015718 64 116 3.0 5.0 0.00 0.00 0.00 73 1016.3
20260507015215 64 163 2.0 2.0 0.00 0.00 0.00 73 1016.2
20260507014712 64 121 2.0 2.0 0.00 0.00 0.00 72 1016.3
20260507014208 64 144 2.0 3.0 0.00 0.00 0.00 71 1016.2
20260507013705 64 120 3.0 3.0 0.00 0.00 0.00 72 1016.1
20260507013202 65 166 3.0 3.0 0.00 0.00 0.00 72 1016.2
20260507012700 65 131 1.0 1.0 0.00 0.00 0.00 72 1016.1
20260507012155 65 67 3.0 3.0 0.00 0.00 0.00 71 1016.0
20260507011653 65 128 5.0 5.0 0.00 0.00 0.00 71 1015.9
20260507011149 65 158 4.0 6.0 0.00 0.00 0.00 72 1015.9
20260507010644 66 137 7.0 8.0 0.00 0.00 0.00 71 1016.3
20260507010140 67 129 4.0 5.0 0.00 0.00 0.00 71 1015.8
20260507005637 67 99 3.0 5.0 0.00 0.00 0.00 70 1016.0
20260507005133 67 179 3.0 3.0 0.00 0.00 0.00 71 1016.1
20260507004630 67 104 4.0 6.0 0.00 0.00 0.00 71 1016.0
20260507004128 67 83 5.0 8.0 0.00 0.00 0.00 71 1016.1
20260507003624 67 92 4.0 6.0 0.00 0.00 0.00 70 1015.9
20260507003120 67 106 6.0 8.0 0.00 0.00 0.00 70 1016.0
20260507002616 69 133 5.0 9.0 0.00 0.00 0.00 66 1015.7
20260507002111 68 125 2.0 2.0 0.00 0.00 0.00 67 1015.9
20260507001608 69 148 3.0 6.0 0.00 0.00 0.00 66 1016.0
20260507001106 69 197 1.0 1.0 0.00 0.00 0.00 65 1015.8
20260507000602 69 82 7.0 9.0 0.00 0.00 0.00 65 1015.6
20260507000058 69 288 7.0 11.0 0.00 0.00 0.00 66 1015.6
20260506235555 69 180 3.0 3.0 0.00 0.00 0.00 64 1015.7
20260506235050 69 170 3.0 3.0 0.00 0.00 0.00 63 1015.6
20260506234548 69 173 5.0 6.0 0.00 0.00 0.00 64 1015.5
20260506234045 69 116 1.0 1.0 0.00 0.00 0.00 65 1015.5
20260506233542 68 177 1.0 2.0 0.00 0.00 0.00 66 1015.6
20260506233039 70 65 5.0 6.0 0.00 0.00 0.00 63 1015.6
20260506232535 69 90 7.0 8.0 0.00 0.00 0.00 64 1015.7
20260506232030 68 125 3.0 6.0 0.00 0.00 0.00 67 1015.6
20260506231528 69 136 6.0 8.0 0.00 0.00 0.00 65 1015.7
20260506231026 71 121 4.0 5.0 0.00 0.00 0.00 62 1015.6
20260506230522 70 111 4.0 5.0 0.00 0.00 0.00 63 1016.0
20260506230020 69 108 1.0 3.0 0.00 0.00 0.00 66 1015.7
20260506225516 70 206 5.0 6.0 0.00 0.00 0.00 65 1016.0
20260506225013 70 166 4.0 5.0 0.00 0.00 0.00 64 1015.8
20260506224509 70 222 4.0 6.0 0.00 0.00 0.00 64 1015.8
20260506224006 69 218 3.0 3.0 0.00 0.00 0.00 65 1016.0
20260506223502 70 166 3.0 5.0 0.00 0.00 0.00 64 1015.9
20260506222959 70 142 1.0 2.0 0.00 0.00 0.00 64 1015.9
20260506222455 71 122 2.0 3.0 0.00 0.00 0.00 63 1016.2
20260506221952 71 179 4.0 6.0 0.00 0.00 0.00 64 1016.0
20260506221449 71 190 1.0 2.0 0.00 0.00 0.00 64 1016.0
20260506220947 70 185 4.0 7.0 0.00 0.00 0.00 64 1016.2
20260506220442 70 93 1.0 3.0 0.00 0.00 0.00 64 1016.2
20260506215939 70 152 4.0 6.0 0.00 0.00 0.00 65 1016.1
20260506215436 70 154 4.0 6.0 0.00 0.00 0.00 63 1016.1
20260506214931 71 177 2.0 3.0 0.00 0.00 0.00 62 1016.1
20260506214428 71 142 2.0 3.0 0.00 0.00 0.00 63 1016.3
20260506213926 71 99 3.0 6.0 0.00 0.00 0.00 63 1016.1
20260506213423 71 162 5.0 7.0 0.00 0.00 0.00 63 1016.0
20260506212921 71 54 4.0 5.0 0.00 0.00 0.00 64 1016.3
20260506212416 71 168 1.0 1.0 0.00 0.00 0.00 66 1016.5
20260506211911 71 205 2.0 3.0 0.00 0.00 0.00 65 1016.1
20260506211408 72 95 10.0 11.0 0.00 0.00 0.00 62 1016.1
20260506210905 71 128 2.0 3.0 0.00 0.00 0.00 62 1016.5
20260506210401 71 103 2.0 3.0 0.00 0.00 0.00 63 1016.6
20260506205859 71 231 5.0 8.0 0.00 0.00 0.00 61 1016.5
20260506205355 71 225 3.0 5.0 0.00 0.00 0.00 61 1016.5
20260506204851 71 109 2.0 2.0 0.00 0.00 0.00 62 1016.5
20260506204349 71 114 5.0 6.0 0.00 0.00 0.00 63 1016.5
20260506203846 71 155 4.0 6.0 0.00 0.00 0.00 63 1016.6
20260506203343 71 210 5.0 6.0 0.00 0.00 0.00 63 1016.6
20260506202840 70 180 3.0 5.0 0.00 0.00 0.00 64 1016.6
20260506202337 70 206 3.0 5.0 0.00 0.00 0.00 65 1016.7
20260506201834 70 199 3.0 3.0 0.00 0.00 0.00 64 1016.7
20260506201331 70 261 4.0 6.0 0.00 0.00 0.00 64 1016.9
20260506200828 71 112 3.0 5.0 0.00 0.00 0.00 62 1016.7
20260506200324 71 322 4.0 5.0 0.00 0.00 0.00 61 1016.7
20260506195820 72 174 2.0 3.0 0.00 0.00 0.00 62 1016.9
20260506195318 72 176 3.0 3.0 0.00 0.00 0.00 59 1016.8
20260506194815 72 116 6.0 9.0 0.00 0.00 0.00 62 1017.0
20260506194311 74 174 2.0 5.0 0.00 0.00 0.00 58 1017.1
20260506193809 73 203 1.0 2.0 0.00 0.00 0.00 53 1017.0
20260506193305 73 187 2.0 3.0 0.00 0.00 0.00 56 1017.1
20260506192801 73 264 3.0 5.0 0.00 0.00 0.00 57 1017.2
20260506192258 74 248 1.0 2.0 0.00 0.00 0.00 56 1017.1
20260506191756 74 210 2.0 3.0 0.00 0.00 0.00 53 1017.2
20260506191252 74 222 3.0 5.0 0.00 0.00 0.00 54 1017.3
20260506190749 73 266 3.0 5.0 0.00 0.00 0.00 55 1017.4
20260506190240 71 183 0.0 1.0 0.00 0.00 0.00 57 1017.3
20260506185737 71 168 0.0 0.0 0.00 0.00 0.00 58 1017.4
20260506185234 71 241 0.0 0.0 0.00 0.00 0.00 57 1017.5
20260506184731 71 125 3.0 5.0 0.00 0.00 0.00 58 1017.6
20260506184228 70 78 2.0 3.0 0.00 0.00 0.00 58 1017.7
20260506183725 71 142 3.0 5.0 0.00 0.00 0.00 57 1017.6
20260506183221 71 320 4.0 5.0 0.00 0.00 0.00 57 1017.6
20260506182718 71 312 7.0 9.0 0.00 0.00 0.00 56 1017.6
20260506182215 69 168 2.0 3.0 0.00 0.00 0.00 58 1017.7
20260506181713 69 175 1.0 1.0 0.00 0.00 0.00 58 1017.8
20260506181211 69 182 2.0 2.0 0.00 0.00 0.00 57 1017.8
20260506180707 70 306 3.0 5.0 0.00 0.00 0.00 57 1017.9
20260506180203 69 172 2.0 2.0 0.00 0.00 0.00 59 1018.0
20260506175700 69 130 0.0 1.0 0.00 0.00 0.00 58 1018.0
20260506175157 68 157 0.0 0.0 0.00 0.00 0.00 60 1018.0
20260506174654 69 306 2.0 2.0 0.00 0.00 0.00 58 1018.0
20260506174151 68 158 0.0 0.0 0.00 0.00 0.00 62 1018.2
20260506173649 68 131 1.0 2.0 0.00 0.00 0.00 61 1018.1
20260506173145 67 63 0.0 1.0 0.00 0.00 0.00 61 1018.0
20260506172642 68 182 3.0 3.0 0.00 0.00 0.00 59 1018.2
20260506172139 67 149 0.0 0.0 0.00 0.00 0.00 62 1018.1
20260506171631 67 164 2.0 2.0 0.00 0.00 0.00 63 1018.4
20260506171128 66 261 3.0 3.0 0.00 0.00 0.00 62 1018.3
20260506170625 66 230 0.0 1.0 0.00 0.00 0.00 63 1018.1
20260506170117 67 245 2.0 3.0 0.00 0.00 0.00 62 1018.2
20260506165615 67 305 1.0 1.0 0.00 0.00 0.00 60 1018.1
20260506165111 66 106 0.0 0.0 0.00 0.00 0.00 63 1018.3
20260506164608 66 63 0.0 1.0 0.00 0.00 0.00 65 1018.3
20260506164106 65 315 0.0 1.0 0.00 0.00 0.00 68 1018.5
20260506163601 64 340 1.0 1.0 0.00 0.00 0.00 69 1018.4
20260506163057 64 316 1.0 3.0 0.00 0.00 0.00 69 1018.4
20260506162553 64 222 1.0 1.0 0.00 0.00 0.00 70 1018.4
20260506162046 64 87 1.0 1.0 0.00 0.00 0.00 69 1018.4
20260506161543 64 289 2.0 3.0 0.00 0.00 0.00 70 1018.3
20260506161039 64 244 0.0 1.0 0.00 0.00 0.00 70 1018.5
20260506160537 63 158 0.0 0.0 0.00 0.00 0.00 71 1018.4
20260506160034 62 124 0.0 0.0 0.00 0.00 0.00 72 1018.4
20260506155533 62 98 2.0 2.0 0.00 0.00 0.00 72 1018.3
20260506153709 61 99 0.0 0.0 0.00 0.00 0.00 74 1018.5
20260506153207 62 9 0.0 1.0 0.00 0.00 0.00 74 1018.4
20260506152704 61 144 0.0 0.0 0.00 0.00 0.00 75 1018.4
20260506152201 60 156 0.0 0.0 0.00 0.00 0.00 75 1018.5
20260506151700 61 312 1.0 1.0 0.00 0.00 0.00 73 1018.2
20260506151156 61 274 0.0 1.0 0.00 0.00 0.00 73 1018.3
20260506150653 61 103 0.0 0.0 0.00 0.00 0.00 74 1018.5
20260506150150 59 126 0.0 0.0 0.00 0.00 0.00 78 1018.5
20260506145647 59 68 0.0 0.0 0.00 0.00 0.00 80 1018.6
20260506145143 57 179 0.0 0.0 0.00 0.00 0.00 88 1018.5
20260506144641 56 84 0.0 0.0 0.00 0.00 0.00 94 1018.7
20260506144137 55 141 0.0 0.0 0.00 0.00 0.00 97 1018.7
20260506143635 54 141 0.0 0.0 0.00 0.00 0.00 99 1018.5
20260506143133 53 164 0.0 0.0 0.00 0.00 0.00 99 1018.4
20260506142632 53 152 0.0 0.0 0.00 0.00 0.00 99 1018.4
20260506142129 52 152 0.0 0.0 0.00 0.00 0.00 99 1018.4
20260506141626 50 151 0.0 0.0 0.00 0.00 0.00 99 1018.2
20260506141125 50 152 0.0 0.0 0.00 0.00 0.00 99 1018.5
20260506140622 49 154 0.0 0.0 0.00 0.00 0.00 99 1018.6
20260506140119 49 156 0.0 0.0 0.00 0.00 0.00 99 1018.5
20260506135616 48 156 0.0 0.0 0.00 0.00 0.00 99 1018.4
20260506135112 48 172 0.0 0.0 0.00 0.00 0.00 99 1018.2
20260506134609 47 172 0.0 0.0 0.00 0.00 0.00 99 1018.3
20260506134104 47 172 0.0 0.0 0.00 0.00 0.00 99 1018.2
20260506133602 46 171 0.0 0.0 0.00 0.00 0.00 99 1018.1
20260506133059 46 171 0.0 0.0 0.00 0.00 0.00 99 1018.0
20260506132556 46 171 0.0 0.0 0.00 0.00 0.00 99 1018.1
20260506132053 46 171 0.0 0.0 0.00 0.00 0.00 99 1018.3
20260506131550 46 172 0.0 0.0 0.00 0.00 0.00 99 1018.2
20260506131047 46 171 0.0 0.0 0.00 0.00 0.00 99 1018.0
20260506130543 45 171 0.0 0.0 0.00 0.00 0.00 99 1017.8
20260506130041 45 171 0.0 0.0 0.00 0.00 0.00 99 1017.8
20260506125539 45 171 0.0 0.0 0.00 0.00 0.00 99 1017.9
20260506125037 45 171 0.0 0.0 0.00 0.00 0.00 99 1017.9
20260506124534 45 171 0.0 0.0 0.00 0.00 0.00 99 1017.9
20260506124032 45 171 0.0 0.0 0.00 0.00 0.00 99 1017.9
20260506123529 45 171 0.0 0.0 0.00 0.00 0.00 99 1017.6
20260506123028 46 171 0.0 0.0 0.00 0.00 0.00 99 1017.7
20260506122524 46 172 0.0 0.0 0.00 0.00 0.00 99 1017.7
20260506122022 46 171 0.0 0.0 0.00 0.00 0.00 99 1017.7
20260506121520 45 171 0.0 0.0 0.00 0.00 0.00 99 1017.6
20260506121015 45 171 0.0 0.0 0.00 0.00 0.00 99 1017.5
20260506120514 46 171 0.0 0.0 0.00 0.00 0.00 99 1017.8
20260506120011 45 171 0.0 0.0 0.00 0.00 0.00 99 1017.8
20260506115509 45 171 0.0 0.0 0.00 0.00 0.00 99 1017.5
20260506115007 46 171 0.0 0.0 0.00 0.00 0.00 99 1017.8